#timestamp,LO_Frequency,Hit,StdDev 
1624158015.8,286046995.8,N
1624158035.6,286046995.2,N
1624158055.4,286046995.4,N
1624158075.3,286046995.1,N
1624158095.1,286046993.3,Y
1624158115.9,286046997.6,P
1624158135.7,286046997.2,P
1624158155.5,286046997.8,P
1624158175.4,286046997.2,Y
1624158195.2,286047000.2,P
1624158215.0,286047002.8,N
1624158216.0,286047002.8,N
1624158235.8,286047000.1,N
1624158255.6,286047000.6,N
1624158275.5,286047000.2,N
1624158295.3,286047000.0,N
1624158315.1,286047002.7,N
1624158335.9,286047002.2,N
1624158355.7,286047002.7,N
1624158375.6,286047000.1,N
1624158395.4,286047000.1,N
1624158415.2,286047002.3,N
1624158435.1,286047002.2,N
1624158436.0,286047002.2,N
1624158455.8,286047001.3,N
1624158475.7,286047001.3,N
1624158495.5,286047001.5,N
1624158515.4,286047002.2,N
1624158535.2,286047001.4,N
1624158555.0,286047001.4,N
1624158555.9,286047001.4,N
1624158575.8,286047001.4,N
1624158595.6,286047002.5,N
1624158615.5,286047001.5,N
1624158635.3,286047003.9,Y
1624158655.2,286047001.6,P
1624158675.9,286047000.5,P
1624158695.7,286046998.2,P
1624158715.6,286046998.1,N
1624158735.4,286047000.4,N
1624158755.2,286046998.3,N
1624158775.1,286046996.8,N
1624158776.0,286046996.8,N
1624158795.8,286046997.4,N
1624158815.7,286046995.2,N
1624158835.5,286046995.0,N
1624158855.3,286046995.6,N
1624158875.2,286046997.0,N
1624158895.9,286046996.8,N
1624158915.7,286046999.6,N
1624158935.6,286046999.4,N
1624158955.4,286046999.2,N
1624158975.3,286046999.0,N
1624158995.1,286046998.8,N
1624158996.0,286046998.8,N
1624159015.8,286046996.7,N
1624159035.7,286046997.1,N
1624159055.5,286046999.5,N
1624159075.4,286046998.7,N
1624159095.2,286046996.9,N
1624159115.0,286046997.0,N
1624159115.9,286046997.0,N
1624159135.8,286046996.9,N
1624159155.6,286046998.9,N
1624159175.4,286046999.5,N
1624159195.3,286047001.1,N
1624159215.1,286046998.3,N
1624159235.9,286046998.3,N
1624159255.7,286046998.2,N
1624159275.5,286047000.4,N
1624159295.4,286047000.0,N
1624159315.2,286047000.8,N
1624159335.1,286047000.6,N
1624159336.0,286047000.6,N
1624159355.8,286047011.9,Y
1624159375.6,286047001.6,P
1624159395.5,286047004.3,N
1624159415.3,286047004.1,N
1624159435.2,286047002.9,N
1624159455.0,286047007.5,Y
1624159455.9,286047007.5,P
1624159475.7,286047004.3,N
1624159495.6,286047004.3,N
1624159515.4,286047003.9,N
1624159535.3,286047001.9,N
1624159555.1,286047004.3,N
1624159575.8,286047001.7,N
1624159595.7,286047001.7,N
1624159615.5,286047003.8,N
1624159635.4,286047004.3,N
1624159655.2,286047004.2,N
1624159675.0,286047004.2,N
1624159675.9,286047004.2,N
1624159695.8,286047003.0,N
1624159715.6,286047003.6,N
1624159735.4,286047001.7,N
1624159755.3,286047001.7,N
1624159775.1,286046999.7,N
1624159795.9,286046999.7,N
1624159815.7,286047002.8,N
1624159835.5,286047002.3,N
1624159855.4,286047002.8,N
1624159875.2,286047002.0,N
1624159895.0,286047002.3,N
1624159896.0,286047002.3,N
1624159915.8,286047001.9,N
1624159935.6,286047002.0,N
1624159955.5,286047003.8,N
1624159975.3,286047001.5,N
1624159995.2,286047001.8,N
1624160015.9,286047002.6,N
1624160035.7,286047002.0,N
1624160055.6,286047002.0,N
1624160075.4,286047002.6,N
1624160095.2,286047002.2,N
1624160115.1,286047000.1,N
1624160116.0,286047000.1,N
1624160135.8,286046999.9,N
1624160155.7,286047000.2,N
1624160175.5,286047002.4,N
1624160195.3,286047000.2,N
1624160215.2,286047000.6,N
1624160235.0,286047002.7,N
1624160235.9,286047002.7,N
1624160255.8,286046999.8,N
1624160275.6,286046999.9,N
1624160295.4,286047002.7,N
1624160315.3,286047000.0,N
1624160335.1,286047000.0,N
1624160355.8,286047000.6,N
1624160375.7,286047000.3,N
1624160395.5,286047001.0,N
1624160415.4,286047000.4,N
1624160435.2,286047002.6,N
1624160455.0,286046999.8,N
1624160455.9,286046999.8,N
1624160475.8,286046999.7,N
1624160495.6,286047000.1,N
1624160515.4,286047002.4,N
1624160535.3,286047011.9,Y
1624160555.1,286047002.6,P
1624160575.9,286047002.4,P
1624160595.7,286046999.7,N
1624160615.5,286047000.2,N
1624160635.4,286047000.5,N
1624160655.2,286047002.4,N
1624160675.1,286047002.7,N
1624160676.0,286047002.7,N
1624160695.8,286047002.3,N
1624160715.6,286047002.6,N
1624160735.5,286047000.2,N
1624160755.3,286046999.7,N
1624160775.1,286047000.1,N
1624160795.9,286047002.7,N
1624160815.7,286046999.9,N
1624160835.6,286046999.8,N
1624160855.4,286047002.7,N
1624160875.2,286047000.4,N
1624160895.1,286047001.4,N
1624160896.0,286047001.4,N
1624160915.8,286046999.7,N
1624160935.7,286047002.7,N
1624160955.5,286046999.7,N
1624160975.3,286047000.4,N
1624160995.2,286047000.1,N
1624161015.0,286047000.6,N
1624161015.9,286047000.6,N
1624161035.8,286047000.4,N
1624161055.6,286046998.1,N
1624161075.4,286047000.8,N
1624161095.3,286046998.4,N
1624161115.1,286046998.6,N
1624161116.0,286046998.6,N
1624161135.8,286047000.3,N
1624161155.7,286047001.0,N
1624161175.5,286046998.5,N
1624161195.4,286046998.1,N
1624161215.2,286047000.8,N
1624161235.0,286047000.5,N
1624161235.9,286047000.5,N
1624161255.8,286047000.0,N
1624161275.6,286047001.1,N
1624161295.4,286047002.7,N
1624161315.3,286047000.4,N
1624161335.1,286046998.8,N
1624161355.9,286047000.5,N
1624161375.7,286047000.8,N
1624161395.5,286047000.1,N
1624161415.4,286047000.4,N
1624161435.2,286047000.7,N
1624161455.0,286047000.0,N
1624161455.9,286047000.0,N
1624161475.8,286047000.1,N
1624161495.6,286047002.8,N
1624161515.5,286047002.4,N
1624161535.3,286047000.6,N
1624161555.1,286047000.7,N
1624161575.9,286047000.4,N
1624161595.7,286047000.5,N
